軌道要素
Epoch 2021 July 5.0 TT = JDT 2459400.5
T 2022 Jan. 13.74243 TT Rudenko
q 1.5301012 (2000.0) P Q
n 0.14781354 Peri. 154.20354 +0.89742773 +0.44115775
a 3.5426363 Node 179.60462 -0.43648850 +0.88851352
e 0.5680897 Incl. 15.30512 -0.06404111 +0.12618866
P 6.67
From 1899 observations 2008 Sept. 10-2021 Oct. 16, mean residual 1".0.
Nongravitational parameters A1 = +0.68, A2 = -0.0379.
|